Theta_e
320 323 325 327 328 328 330 331 329 331 331 329 328 327 328 329 331 332 332 332 332 331 330 329 329 329 327 326 325 325 324 324 323 323 322 322 322 322 321 321 321 321 321 322 322 324 326 329 330 330 330 329 328 327 325 325 325 325 326 326 326 326 326 324 322 320 318 316 314 315 319 321 323 327 328 331 332 330 330 331 332 331 332 333 333
319 322 324 325 326 326 329 331 330 330 330 329 328 328 327 328 328 329 330 330 330 329 328 328 327 326 326 326 326 326 326 326 325 325 324 324 323 323 322 322 322 321 324 325 325 328 330 332 333 333 332 330 328 328 327 326 325 325 325 325 326 326 326 326 324 322 320 318 317 318 320 322 325 329 327 329 330 326 324 325 328 330 330 330 331
319 320 322 324 325 325 327 330 331 330 329 329 329 329 328 328 328 328 329 330 330 329 328 328 327 326 326 326 326 326 326 326 326 326 325 325 324 323 322 322 322 323 326 328 329 331 334 334 334 332 331 329 328 329 327 326 324 323 324 324 324 325 325 326 325 324 322 320 320 322 326 329 330 330 330 330 327 325 322 321 323 326 328 326 326
319 320 321 323 324 324 325 329 331 329 329 329 329 330 329 329 328 328 328 329 330 329 329 328 326 325 325 326 325 325 326 325 325 325 324 323 323 322 322 323 323 325 328 330 332 333 334 333 331 331 330 329 328 328 327 325 323 322 322 323 324 324 325 325 325 325 323 322 322 326 331 334 332 330 333 333 330 330 329 326 322 321 321 319 320
319 319 319 321 324 324 324 327 330 330 328 329 329 330 330 330 330 329 328 328 329 329 328 327 325 324 325 325 325 325 326 325 326 326 325 324 323 323 323 324 325 326 330 332 332 333 333 331 330 330 329 328 328 327 326 324 322 321 321 322 323 324 325 325 325 325 324 323 321 328 334 334 332 331 334 334 334 335 334 333 328 324 320 318 318
320 319 319 320 323 324 324 325 329 330 328 328 329 329 330 331 330 329 328 328 328 327 327 325 324 325 325 325 325 327 329 329 329 328 327 326 325 324 325 325 327 327 330 332 333 334 333 330 328 328 327 327 327 327 325 322 320 317 316 317 318 319 322 324 325 325 325 325 322 327 332 334 333 332 332 332 333 334 334 334 332 329 325 322 321
321 319 319 319 321 322 323 324 326 329 327 327 328 327 329 330 330 330 329 328 327 326 325 325 326 326 326 325 327 329 331 333 333 332 329 327 327 326 326 327 328 328 330 331 333 332 330 327 326 326 325 324 324 325 324 321 318 314 311 312 312 313 316 318 322 325 326 326 326 329 331 332 332 332 332 330 332 332 332 334 333 332 330 327 324
322 320 319 317 319 320 321 323 324 326 325 326 326 326 328 329 330 330 329 328 327 326 326 327 327 327 326 326 328 330 331 333 334 334 331 328 328 327 327 328 328 328 330 331 331 330 328 326 323 323 321 319 320 322 322 320 316 311 310 310 310 310 311 312 315 321 325 326 327 329 331 330 330 332 332 330 331 330 330 332 332 332 332 331 328
322 321 319 318 318 317 319 321 322 323 323 324 324 324 326 328 329 330 331 330 329 329 330 329 329 328 327 328 329 331 333 333 333 332 330 328 328 328 326 327 328 327 329 330 329 327 327 323 319 319 317 315 316 317 317 315 311 309 309 308 308 308 308 310 310 314 320 324 326 327 329 329 330 332 332 330 331 329 328 328 330 332 331 331 329
322 322 319 318 317 316 316 317 319 321 321 321 321 321 322 325 327 329 330 331 331 331 330 329 329 328 328 331 332 332 334 335 334 330 327 326 327 328 327 326 326 326 327 327 326 324 322 318 314 314 313 312 313 312 311 309 307 306 305 305 305 305 306 306 307 309 312 318 322 324 327 328 330 333 332 330 331 331 327 327 331 332 330 330 329
322 322 320 318 317 316 315 315 316 317 318 319 318 318 319 321 323 325 326 329 330 328 328 327 328 328 330 333 333 333 334 335 333 328 325 326 326 327 327 326 325 325 325 325 323 319 315 314 311 310 311 310 309 308 307 305 304 304 304 304 304 304 304 304 304 305 306 309 314 317 322 325 329 332 332 330 330 330 328 327 329 330 329 329 329
322 322 321 319 318 317 316 315 314 314 315 316 315 315 316 316 317 319 321 324 325 326 326 327 327 330 332 332 333 334 333 333 330 325 324 324 324 325 328 327 324 322 321 322 320 315 312 309 308 307 307 306 305 305 304 304 304 304 304 304 304 304 304 304 304 304 304 305 306 310 313 320 329 330 329 329 328 329 328 327 328 328 328 329 330
322 322 322 321 319 319 317 315 314 314 313 314 314 314 314 313 313 314 317 319 322 325 326 326 327 330 333 331 333 334 333 331 327 322 321 321 321 321 326 326 322 318 316 317 315 311 309 306 304 304 304 304 304 304 304 304 304 305 305 306 306 305 305 305 305 304 304 304 304 305 306 314 324 327 325 325 326 327 327 328 328 328 328 329 332
320 321 322 322 321 319 318 316 315 314 314 313 312 313 313 312 312 312 313 316 319 324 325 327 328 330 332 331 333 333 331 329 326 320 318 318 317 316 319 319 316 314 312 312 311 308 305 303 303 304 304 304 303 304 304 305 306 306 307 307 307 307 307 306 306 305 304 304 304 304 303 306 312 317 319 319 322 324 324 325 326 327 328 329 332
319 319 321 322 322 321 319 317 316 315 314 314 313 312 312 312 312 311 312 314 317 323 326 327 329 330 331 332 333 333 330 329 324 318 315 314 313 312 313 313 313 312 310 309 306 304 304 303 304 303 303 303 303 304 305 306 307 307 307 307 308 307 308 307 307 306 305 305 304 304 303 303 304 306 311 314 316 317 316 317 319 323 326 327 328
318 317 319 320 321 322 320 319 317 316 315 314 314 313 312 312 313 312 312 313 315 322 326 326 328 329 330 331 332 331 329 327 321 315 313 311 310 311 310 311 311 309 307 305 304 304 304 304 303 303 303 303 304 305 306 307 306 306 307 307 307 307 307 307 307 307 307 306 305 304 304 304 303 303 306 310 311 309 309 310 312 316 319 322 325
317 317 317 318 320 320 320 320 318 317 316 315 314 313 313 313 313 313 313 312 314 322 325 325 325 326 327 328 328 328 326 323 318 313 311 310 310 309 309 309 308 306 305 304 304 304 304 304 303 303 303 304 305 306 306 306 306 306 306 306 306 306 307 307 307 307 307 307 306 306 305 304 304 303 303 305 306 305 305 305 306 308 310 313 319
317 317 317 317 318 319 319 319 319 318 317 316 315 314 313 313 314 314 313 311 314 319 321 321 321 322 323 323 322 322 321 318 315 312 310 310 308 306 306 306 305 305 304 304 304 304 304 304 303 303 304 305 306 306 306 306 306 306 306 306 306 306 307 307 307 307 307 307 307 306 306 305 304 303 303 303 303 303 303 303 303 304 305 307 309
316 317 317 317 317 318 319 319 319 319 318 318 316 315 314 313 314 314 313 311 313 317 318 317 317 316 316 316 316 316 315 313 311 310 309 308 306 305 304 304 304 304 304 304 304 303 303 303 303 304 305 306 306 306 306 306 306 306 306 306 306 307 307 307 307 307 307 307 307 306 306 305 304 303 303 303 303 303 302 303 302 302 303 304 304
316 316 316 317 317 317 317 318 318 318 318 318 318 317 315 314 314 315 314 312 311 313 314 314 313 313 313 313 313 313 312 310 310 310 309 307 305 304 304 304 304 304 304 304 303 303 303 303 303 304 305 306 305 305 305 305 306 306 306 306 306 306 306 307 307 307 307 307 307 306 306 305 305 304 303 303 303 302 302 302 302 302 302 303 303
315 316 316 316 317 317 316 316 317 317 318 318 319 318 316 315 314 314 315 313 311 311 312 312 312 312 312 312 311 311 310 309 309 309 308 306 305 304 305 304 304 304 304 304 303 303 303 303 303 305 305 305 305 305 305 305 305 306 306 306 306 306 306 306 306 307 306 307 306 306 306 305 305 304 304 303 303 302 302 302 302 302 302 302 302
315 315 315 316 316 317 316 316 316 316 317 317 319 319 318 316 315 314 315 315 313 311 311 311 311 312 312 312 311 310 310 309 309 309 308 306 305 305 305 304 304 304 304 304 303 303 303 303 304 305 305 305 305 304 305 305 306 305 305 306 306 306 306 306 306 306 306 306 306 306 306 305 305 304 304 303 303 302 302 302 302 302 302 302 302
315 315 315 315 315 316 316 316 316 316 316 317 318 319 320 318 315 315 314 315 315 313 312 312 312 312 312 312 311 310 309 309 309 309 307 306 305 305 305 305 304 304 304 303 303 303 303 303 304 305 305 305 304 304 305 305 305 305 305 305 305 305 305 305 305 306 306 306 306 306 306 305 305 304 304 304 304 303 302 302 301 301 301 301 302
315 315 315 315 315 315 316 316 316 316 316 317 317 318 319 319 317 316 315 315 315 314 313 313 312 312 313 312 311 310 309 309 309 309 307 305 305 305 305 305 304 304 303 303 303 303 303 303 304 304 304 304 304 304 305 305 305 305 305 305 305 305 305 305 305 305 305 305 306 306 305 305 305 304 304 304 304 303 302 302 301 301 301 301 301
316 315 315 315 315 315 315 316 316 316 316 316 316 316 317 319 319 317 316 315 315 315 313 313 313 312 313 313 312 312 310 309 309 308 307 305 305 305 305 305 305 304 303 303 303 303 303 303 304 304 304 304 304 304 305 305 305 305 305 305 305 305 304 304 304 305 305 305 305 305 305 305 304 304 303 303 303 303 302 302 301 301 301 301 301
316 315 315 314 315 315 315 315 315 316 316 316 316 316 317 318 319 319 317 316 316 315 314 314 313 313 314 313 314 315 312 309 309 308 307 305 305 305 305 305 305 304 303 303 303 303 303 303 304 304 304 304 304 304 305 305 305 305 305 305 305 304 304 304 304 304 304 305 305 305 305 304 304 303 303 302 302 302 301 301 301 302 303 302 302
315 314 314 314 314 315 314 315 315 315 316 316 317 317 317 317 317 319 318 317 316 315 314 314 314 313 314 313 315 316 313 309 309 308 306 304 304 305 305 305 305 304 303 303 303 302 302 303 303 304 304 304 304 304 304 305 305 305 305 305 305 304 304 304 304 304 304 304 304 305 305 304 304 303 302 302 301 300 301 303 305 306 307 306 306
314 314 314 314 315 315 315 315 315 315 315 316 316 316 317 316 316 318 317 316 316 315 315 315 315 314 314 313 314 315 312 309 309 308 307 304 304 305 305 305 305 304 303 303 303 302 302 302 303 304 304 303 303 304 304 304 304 305 305 305 304 304 304 304 303 303 303 304 304 304 304 304 304 303 302 301 300 300 303 307 309 309 309 309 309
314 314 314 314 314 315 315 315 315 315 315 315 316 316 316 316 316 316 316 316 316 315 315 315 315 315 315 314 314 313 311 310 309 308 307 304 304 305 305 305 305 304 303 302 302 302 302 302 303 303 303 303 303 303 304 304 304 304 304 304 304 304 304 304 303 303 303 303 303 303 304 304 304 304 303 302 300 300 305 309 311 311 311 311 310
314 314 314 314 314 314 315 315 315 314 315 315 315 315 316 316 316 315 316 316 315 316 316 315 315 315 315 315 314 313 311 310 309 308 307 305 304 305 305 305 305 304 303 302 302 301 302 302 302 303 303 303 303 303 303 303 304 304 304 304 304 304 304 304 303 303 303 303 303 303 303 304 304 304 303 302 300 300 303 307 310 311 312 312 312
315 314 314 314 314 314 314 314 314 314 314 314 315 315 315 316 316 316 316 316 315 315 316 316 316 315 315 315 314 312 312 311 309 309 308 306 304 304 305 305 305 305 303 302 302 301 301 302 302 303 303 303 303 303 303 303 303 303 303 303 303 304 304 304 303 303 303 303 303 303 303 303 304 304 303 302 300 299 300 303 306 310 312 313 313
314 315 314 314 314 313 313 313 313 314 314 314 314 315 315 315 315 316 316 316 316 315 315 316 316 315 315 315 313 312 312 311 310 309 308 307 305 304 304 305 305 305 304 302 302 302 301 302 302 302 303 303 303 302 303 303 303 303 303 303 303 303 303 303 303 303 303 303 303 303 303 303 303 303 302 301 299 299 299 300 304 308 311 312 312
314 314 314 313 313 313 313 313 313 313 313 314 314 314 314 315 315 315 316 316 316 316 316 316 316 315 315 315 314 312 312 311 310 309 309 308 306 304 304 304 305 305 304 303 302 302 301 301 301 302 302 302 302 302 302 302 302 302 302 303 303 303 303 303 303 303 303 303 302 302 302 302 302 302 301 299 298 298 297 298 300 302 306 310 311
313 312 313 313 312 312 312 312 312 312 313 313 313 314 314 314 314 315 315 315 316 316 316 316 316 316 315 314 314 313 312 311 311 310 309 308 307 305 304 304 304 305 305 303 302 302 302 301 301 301 302 302 302 302 302 302 302 302 302 302 303 303 303 303 303 303 303 302 302 302 302 302 302 301 300 298 298 297 297 297 298 299 301 304 307
312 312 312 312 312 311 311 311 311 311 312 312 312 313 313 313 314 314 314 315 315 316 316 316 316 316 315 314 314 314 313 311 310 310 309 308 308 306 304 304 304 304 305 304 303 302 301 301 300 300 301 302 302 301 301 301 302 302 302 302 302 302 302 302 302 302 302 302 302 301 301 301 301 300 299 298 297 297 296 296 296 297 298 299 302
312 312 312 312 312 311 311 311 311 311 311 311 312 312 312 313 313 313 314 314 315 315 316 316 317 316 316 315 314 314 314 313 311 310 309 308 308 307 305 304 303 303 304 303 302 302 301 301 300 300 301 301 301 301 301 301 301 302 302 302 302 302 302 302 302 302 302 301 301 301 301 301 300 299 298 298 297 296 296 296 296 296 296 297 300
311 311 311 311 311 311 311 311 311 311 310 311 311 311 311 312 312 313 313 313 314 314 315 316 316 316 316 316 315 315 314 314 312 310 309 308 307 307 306 304 303 303 303 303 302 302 301 301 300 300 300 301 301 301 301 301 301 301 301 301 301 301 301 301 301 301 301 301 301 301 301 300 299 298 298 298 297 296 296 296 295 295 295 296 297
310 310 310 310 310 310 310 311 311 310 310 310 310 310 310 311 311 312 312 313 313 314 314 315 316 316 316 317 316 315 315 314 314 311 310 308 307 306 306 305 304 303 303 303 302 301 301 301 300 300 300 300 301 301 300 301 301 301 301 301 301 301 301 301 301 301 301 301 301 301 300 300 299 298 297 297 296 296 296 295 295 295 295 295 295
310 309 310 310 310 310 310 310 310 310 310 310 310 310 310 310 310 311 312 312 312 313 314 314 315 316 316 317 317 316 316 316 315 313 311 308 307 306 305 306 305 302 302 302 302 301 301 301 300 300 300 300 300 300 300 300 301 300 300 300 300 301 301 301 301 301 301 301 301 301 300 299 299 298 297 296 295 295 295 295 295 295 295 294 294
309 309 310 310 310 310 309 309 310 309 309 309 309 309 310 310 310 310 311 311 312 312 313 314 315 315 316 317 317 317 317 317 316 315 313 310 308 306 305 305 305 303 301 302 302 301 301 301 300 300 299 299 300 300 300 300 300 300 300 300 300 300 300 300 300 300 301 301 300 300 300 299 298 297 296 295 295 295 295 294 294 294 294 294 294
308 309 309 309 309 309 309 309 309 309 309 308 309 309 309 309 309 309 310 310 310 311 311 312 313 314 315 316 316 317 318 318 317 316 315 312 309 307 305 304 305 304 302 301 301 301 301 301 300 300 299 299 299 300 300 300 300 300 300 300 300 300 300 300 300 300 300 300 300 300 299 298 298 297 296 295 295 294 294 294 294 294 294 294 294
308 308 308 308 308 308 309 308 308 309 308 308 307 308 308 308 308 308 309 309 309 309 310 311 311 313 314 315 315 316 317 317 317 317 316 314 312 309 306 304 303 304 302 301 300 301 300 300 300 299 299 299 299 299 300 300 300 300 299 299 299 299 299 299 299 300 300 299 299 299 298 298 297 296 296 295 294 294 294 294 294 294 293 294 294
307 308 308 308 308 308 308 308 308 308 308 308 307 307 307 307 307 307 307 308 308 308 309 309 310 311 312 313 314 315 316 316 317 317 316 316 314 312 309 306 303 302 302 301 300 300 300 300 300 299 299 298 298 299 299 300 299 299 299 299 299 299 299 299 299 299 299 299 299 299 298 297 296 296 295 295 294 294 294 293 293 293 293 293 293
308 309 309 309 308 307 307 307 307 307 307 307 306 306 306 306 306 306 307 307 307 307 307 308 308 308 309 310 311 312 313 314 315 316 316 316 315 314 312 309 305 302 302 301 300 300 300 300 299 299 299 298 298 298 299 299 299 299 299 299 299 299 298 299 299 298 299 299 299 299 298 297 296 295 295 294 294 294 294 293 293 293 293 293 293
308 309 309 308 308 307 307 307 306 306 306 305 305 305 305 306 306 306 306 306 306 306 306 307 307 307 307 308 308 309 310 311 312 313 314 315 315 315 314 313 309 304 301 301 300 300 300 300 300 299 299 298 298 299 299 299 299 299 299 299 299 299 299 300 299 298 298 298 298 298 297 297 296 295 295 294 294 294 294 293 293 293 293 292 292
307 307 307 307 307 307 307 307 307 306 306 306 305 304 304 304 305 305 305 305 306 306 306 306 306 306 306 307 307 307 308 308 308 310 311 312 313 314 314 314 312 308 302 300 300 300 299 299 299 299 299 298 298 298 299 299 299 299 299 299 300 300 300 301 300 298 298 298 297 298 297 296 296 295 294 294 294 294 294 294 293 293 292 292 292
307 307 307 307 307 307 307 307 307 306 306 306 305 304 304 304 304 304 304 304 305 306 306 305 305 305 305 305 306 306 306 306 307 307 308 309 310 311 313 313 313 311 306 301 300 300 299 299 299 299 299 298 298 298 298 299 298 298 299 299 299 300 300 301 300 299 299 297 297 298 297 296 296 295 295 294 294 294 294 294 293 293 293 292 292
306 307 307 307 307 306 306 306 306 306 306 305 305 304 304 303 303 303 303 303 304 304 305 305 304 304 304 304 304 305 305 305 305 305 306 306 307 308 310 311 312 313 310 305 301 299 299 299 298 298 298 298 297 298 298 298 298 298 299 299 299 299 300 300 300 300 300 298 297 298 297 297 296 295 296 295 295 295 295 294 293 293 293 292 292
305 306 306 306 306 306 306 305 305 305 305 305 305 304 303 302 303 303 303 303 303 304 304 304 303 303 303 303 303 303 303 304 304 304 304 305 305 306 307 308 310 311 311 309 304 300 299 299 298 298 298 298 297 297 297 298 298 298 298 299 299 299 299 299 300 299 300 299 299 298 298 297 296 296 296 296 296 296 296 295 294 293 293 292 292
303 304 305 305 306 306 306 306 305 304 304 304 303 303 302 302 303 303 302 302 302 302 302 303 303 302 302 302 302 302 302 302 303 303 303 304 304 304 305 306 307 309 310 310 307 302 299 299 299 298 297 297 297 297 297 297 297 298 298 298 299 299 298 298 299 299 299 299 299 300 299 298 298 297 297 298 298 297 297 296 294 293 293 292 292
302 303 303 304 304 304 305 305 305 304 304 304 303 302 302 302 303 303 303 302 301 301 301 301 302 302 302 301 301 301 302 302 302 302 302 302 303 303 303 304 305 306 307 309 308 305 301 299 299 298 297 297 297 297 296 296 297 297 297 298 298 299 299 299 299 299 299 299 300 300 299 299 298 298 298 298 298 298 297 296 294 293 293 292 292
Wind_Speed
10 13 15 16 17 17 18 18 18 18 18 18 17 15 14 14 13 12 11 11 10 10 10 9 8 7 6 5 5 4 4 3 3 3 3 3 3 3 2 2 2 2 2 3 3 4 3 3 3 3 3 3 2 2 2 3 4 4 4 5 5 6 7 7 7 7 6 6 5 5 5 5 5 5 6 7 7 7 6 6 5 5 5 4 3
10 14 15 17 18 17 18 18 18 18 18 17 17 15 14 14 12 12 11 11 10 10 9 8 7 7 6 6 6 6 6 5 5 5 4 4 4 4 4 3 3 2 2 3 3 3 3 2 1 1 1 2 2 2 1 2 3 3 3 3 4 4 5 6 6 6 6 5 5 5 4 3 4 4 4 5 5 5 4 4 4 5 6 4 4
9 14 14 17 18 18 18 18 18 18 18 18 17 16 15 14 13 12 11 11 11 10 10 9 8 8 7 7 7 7 7 7 7 7 6 6 6 5 5 4 4 3 2 2 2 1 2 2 2 2 2 2 2 1 1 2 3 3 3 2 3 3 3 4 4 4 4 4 4 5 4 3 3 2 2 3 3 3 3 2 2 3 3 3 3
7 14 15 17 19 19 19 18 19 18 17 18 18 18 16 15 14 13 12 11 11 11 10 10 9 9 8 8 8 8 8 8 8 8 8 8 7 6 5 4 4 3 1 2 2 1 3 3 3 3 3 2 1 1 0 1 2 3 3 3 2 2 2 2 2 3 3 3 3 4 4 2 2 2 0 2 2 1 1 1 1 1 1 1 2
7 13 15 16 19 19 20 20 20 19 17 17 18 18 17 17 16 15 14 13 12 12 11 11 10 10 9 9 9 9 8 8 8 8 8 8 7 7 6 5 5 4 3 3 3 4 4 3 3 3 3 3 2 3 2 2 4 5 5 4 3 3 2 2 0 1 2 2 3 4 2 1 2 2 1 2 2 1 1 1 1 1 1 1 1
7 13 16 16 19 20 20 21 21 21 18 18 18 17 18 17 17 16 15 15 14 14 13 12 11 10 10 10 9 8 8 8 8 8 8 8 7 6 6 6 6 5 4 4 5 5 4 4 3 4 4 4 4 4 4 4 7 8 9 7 6 5 5 4 3 2 2 3 3 3 2 2 2 3 3 3 3 3 2 2 2 2 2 2 2
8 12 16 17 19 20 20 21 22 22 19 18 18 17 18 18 17 16 16 15 15 14 13 12 11 11 11 10 9 8 8 7 7 7 7 8 7 6 6 6 6 6 6 6 6 7 6 6 5 5 6 6 6 6 7 8 9 11 10 10 9 8 8 7 6 5 4 5 5 4 2 3 3 3 4 4 4 4 4 3 3 4 4 4 4
9 11 16 17 19 20 20 21 22 22 21 19 18 18 18 18 17 16 16 16 15 14 13 12 11 11 11 10 9 9 9 8 8 7 7 7 7 7 7 7 7 7 7 8 8 9 9 8 8 8 9 8 8 9 10 11 11 11 10 10 10 10 9 9 9 7 7 7 6 6 4 3 3 3 5 5 5 6 5 4 5 6 6 6 6
9 10 15 16 19 20 19 21 21 22 21 20 20 19 18 18 17 17 17 17 16 15 14 13 12 11 10 10 10 9 10 10 10 10 9 8 8 8 8 9 9 9 9 10 11 11 11 11 11 11 12 11 11 11 12 12 12 11 10 10 9 9 9 9 9 9 10 9 9 8 6 3 2 4 7 6 6 7 7 5 5 6 6 7 8
10 11 15 17 18 19 19 20 21 22 21 21 20 20 19 19 19 18 18 18 17 16 16 14 13 12 11 11 11 11 11 12 12 12 10 9 9 10 10 10 11 12 12 13 14 14 14 13 12 11 11 11 11 11 11 11 10 9 8 7 6 7 6 7 8 8 10 10 11 9 7 5 2 7 10 9 8 8 8 7 6 6 7 8 8
12 12 15 18 18 18 18 19 20 21 21 21 21 20 20 20 20 19 19 18 18 17 16 15 15 13 13 13 12 12 13 13 14 14 13 11 11 12 12 12 13 14 15 15 16 16 15 13 10 8 9 9 9 8 8 7 6 5 4 3 2 2 2 3 4 6 8 9 11 9 9 6 2 11 14 12 11 9 8 8 8 8 9 9 9
13 13 15 18 18 17 18 19 20 20 21 21 21 20 20 20 19 19 19 19 18 18 17 16 16 15 15 15 14 14 15 16 16 15 14 14 14 13 14 15 15 16 16 16 17 16 14 10 7 7 7 7 6 6 5 4 3 2 2 1 1 1 1 1 2 2 4 6 8 9 10 9 8 14 14 14 13 9 8 8 9 8 9 9 9
14 14 16 18 18 17 18 20 21 20 21 21 20 20 20 19 19 19 19 19 19 18 17 17 17 17 17 16 16 16 17 18 18 17 16 16 16 15 16 17 17 17 16 15 16 15 12 7 5 5 5 4 4 4 3 3 2 2 2 2 2 2 2 2 2 2 2 3 4 7 10 12 15 15 13 13 11 9 8 8 8 7 7 7 7
12 15 16 17 18 18 19 21 21 21 21 21 20 20 20 20 19 19 19 20 20 20 19 18 18 18 18 18 18 19 19 19 20 18 17 17 17 16 17 18 18 17 15 14 13 12 9 6 5 4 4 4 4 4 4 3 2 2 2 2 2 3 3 3 3 3 3 3 3 5 9 12 14 15 13 12 10 9 9 9 10 8 7 8 8
12 13 15 17 18 18 19 21 22 22 22 22 21 20 20 20 20 19 20 21 22 21 21 20 19 19 20 20 20 20 20 20 21 20 18 16 16 15 15 17 16 15 13 12 11 10 7 5 4 4 4 4 4 4 3 2 2 2 2 2 2 3 3 4 4 4 4 4 4 5 7 8 9 11 12 12 12 12 12 11 12 11 10 10 11
12 13 15 17 18 19 19 21 23 23 23 22 22 21 21 21 21 20 20 21 22 22 22 22 21 21 21 21 20 20 20 21 22 21 18 14 13 13 13 14 14 13 11 10 9 8 7 6 5 4 4 4 3 3 2 1 1 1 2 3 3 3 4 4 4 4 4 4 5 6 7 6 6 8 10 12 13 13 12 12 12 13 14 13 13
13 14 15 17 19 20 20 21 23 23 23 23 23 23 23 22 22 21 20 21 23 23 23 23 23 23 23 22 22 21 22 22 22 21 17 13 11 11 12 14 13 12 10 10 9 8 8 7 6 5 4 4 3 2 1 1 2 3 4 4 4 4 4 4 5 5 5 5 6 7 7 6 6 7 10 12 13 12 12 11 11 12 13 14 15
14 15 17 18 19 21 21 21 22 23 24 24 24 24 24 24 23 22 21 22 24 24 23 23 23 23 23 23 23 23 24 23 22 20 16 13 12 11 12 14 13 12 11 11 9 9 9 8 7 6 5 4 4 3 2 3 4 5 5 6 6 6 6 5 5 5 5 6 6 7 6 6 7 8 9 10 11 12 11 10 10 10 11 12 13
15 16 18 19 20 21 22 22 22 23 24 25 25 25 26 25 24 23 23 23 25 25 24 23 23 23 23 23 23 23 24 23 21 18 15 13 12 11 12 13 13 12 11 11 11 11 10 9 8 7 6 5 5 4 4 4 5 6 6 7 7 7 7 7 6 6 6 7 7 7 6 7 7 8 9 9 10 10 10 10 9 10 10 10 11
17 17 19 20 21 22 23 24 23 23 24 25 26 26 26 26 25 25 25 24 25 25 25 24 24 24 23 23 22 23 23 21 19 16 15 14 13 12 13 13 12 12 12 11 11 11 11 10 9 8 8 7 6 5 5 5 6 6 6 7 7 7 7 7 7 7 8 8 8 8 8 8 8 9 9 9 10 9 9 10 9 9 10 10 10
20 19 20 21 23 24 24 25 25 25 24 25 25 25 26 26 27 27 26 26 26 26 26 26 25 25 25 23 23 22 22 20 18 17 16 15 14 14 14 14 13 13 13 13 12 12 11 11 10 9 8 8 7 6 6 6 6 6 6 6 6 7 7 7 7 7 8 9 9 9 9 9 9 10 10 10 10 10 10 10 10 10 10 10 10
22 21 22 23 24 25 25 26 26 26 26 26 26 25 25 26 28 29 29 28 28 27 27 27 26 26 26 25 24 23 22 21 19 18 18 16 16 16 16 15 15 15 14 14 14 13 13 12 11 10 9 8 8 7 6 6 6 6 6 6 6 6 6 7 7 7 8 9 9 9 10 10 10 11 11 11 11 10 10 10 10 10 10 9 10
22 22 22 23 25 25 26 27 27 27 27 28 28 26 25 26 28 29 31 30 30 30 29 28 28 29 28 26 25 25 23 22 21 20 19 18 18 18 17 17 17 16 16 16 15 15 14 13 12 11 11 9 9 8 7 6 6 6 5 6 6 6 6 7 7 7 8 8 9 9 10 10 11 11 12 13 12 12 12 11 11 11 10 10 10
24 22 22 24 25 26 27 27 28 29 30 30 30 29 27 27 28 29 32 32 32 32 31 31 30 31 30 28 27 27 25 24 24 22 20 20 20 20 19 19 19 18 18 18 17 16 15 14 13 13 12 11 10 9 7 7 6 6 5 5 6 6 6 7 7 7 8 8 8 9 9 10 11 11 12 13 13 12 12 12 11 11 12 11 11
25 25 23 23 24 25 26 28 29 30 31 32 33 32 29 28 28 28 31 33 33 34 34 33 33 33 32 30 28 27 27 27 26 23 22 22 22 22 22 21 21 20 20 20 19 18 16 15 15 15 14 12 11 9 8 7 6 6 5 5 5 6 6 6 7 7 7 7 8 8 9 10 10 11 11 12 12 12 12 12 12 11 12 12 12
26 27 25 24 23 23 26 28 29 31 32 33 34 34 32 30 29 28 30 33 33 34 35 34 34 34 32 32 29 26 28 29 27 25 24 24 25 24 24 23 22 22 22 21 21 19 18 17 17 16 15 14 12 11 9 8 7 6 5 5 5 5 5 6 6 6 7 7 7 8 8 9 10 10 11 11 12 11 11 11 11 10 10 11 11
26 27 26 25 24 24 25 27 30 31 32 34 36 37 36 33 32 29 30 33 34 35 36 35 35 35 34 34 30 27 29 30 27 26 26 27 27 26 25 24 24 23 23 23 22 20 19 18 18 17 16 15 13 12 11 9 8 6 5 5 4 4 4 5 5 6 6 6 7 7 8 9 9 10 10 11 11 10 9 8 7 7 7 7 7
25 25 24 25 25 25 25 27 30 31 33 34 36 38 38 37 36 34 33 35 36 37 38 36 35 35 35 35 32 30 30 30 29 28 27 28 29 28 26 25 25 24 24 24 23 21 21 20 20 19 17 16 14 13 12 10 8 6 5 5 4 4 4 4 5 6 6 6 7 7 8 8 9 9 10 10 10 9 7 5 5 4 4 4 3
25 24 24 24 24 25 25 26 29 31 33 34 35 38 40 40 39 38 38 38 38 39 38 38 36 35 35 35 34 33 32 31 30 29 29 30 30 30 28 27 26 25 25 25 24 23 22 22 20 19 19 17 16 15 13 11 9 7 6 5 4 4 4 4 5 5 6 6 7 7 8 9 9 9 9 10 9 8 5 4 3 3 2 3 2
29 27 27 27 24 24 25 24 26 29 32 34 36 37 39 41 41 41 41 39 39 40 39 39 38 37 37 36 34 34 33 33 32 31 30 31 32 31 30 29 27 26 26 27 25 24 24 23 21 21 20 19 18 16 14 12 10 8 7 6 5 5 4 5 5 6 6 7 7 7 8 9 9 9 9 10 9 9 7 5 3 2 2 2 1
29 29 30 29 27 27 27 25 26 28 31 34 36 37 39 41 41 41 42 41 40 40 40 41 40 39 39 36 34 34 35 35 34 33 32 32 33 33 32 31 29 28 28 28 27 26 26 24 23 23 22 20 19 17 15 13 11 9 8 7 6 5 5 5 6 6 7 8 8 8 8 9 9 9 9 9 10 10 9 7 4 3 2 2 2
28 28 27 27 28 29 29 28 28 29 30 32 35 37 39 40 41 42 43 42 41 41 42 42 42 41 40 37 35 35 36 36 36 35 34 33 34 35 34 32 30 29 29 29 28 28 27 26 25 24 24 22 21 18 16 14 12 11 9 8 7 6 6 6 7 7 8 8 8 9 9 9 9 9 9 8 8 8 8 7 5 4 4 4 3
25 24 23 23 24 26 29 29 30 31 31 31 33 35 38 39 41 42 43 43 43 44 43 44 43 43 43 40 37 37 37 37 37 37 36 35 35 36 35 34 32 30 30 31 30 30 29 28 26 26 25 24 22 20 18 16 14 12 11 9 8 7 7 7 7 7 8 8 9 9 9 9 10 9 8 7 7 6 7 8 7 7 7 6 4
21 21 21 19 19 21 24 26 29 31 31 31 32 34 36 38 40 42 43 44 44 44 44 45 44 44 44 42 39 39 39 39 39 39 38 37 36 36 36 36 34 32 32 32 32 32 31 29 28 27 27 26 24 21 19 18 16 14 12 11 10 9 8 8 8 8 8 9 9 9 9 9 9 9 8 7 7 6 6 7 7 9 11 9 6
18 19 19 17 16 18 20 22 24 27 30 31 33 34 34 36 39 41 43 44 44 44 45 45 45 45 45 43 41 41 40 40 41 41 39 38 38 37 37 37 36 34 33 33 33 33 32 31 29 29 28 27 25 23 21 20 18 16 14 13 11 11 10 9 9 9 9 9 9 9 9 9 9 8 8 7 6 6 6 6 8 10 11 11 8
15 16 17 16 14 16 18 19 20 22 25 28 30 32 34 36 38 40 42 44 44 45 45 46 46 46 46 44 43 42 42 41 41 42 41 40 39 38 38 38 38 36 35 34 35 34 34 32 31 31 30 28 27 24 23 22 19 18 16 14 13 12 11 10 10 10 9 10 10 10 10 9 8 8 8 8 7 7 7 7 8 8 9 9 7
13 13 14 15 14 14 16 17 18 19 20 23 26 28 31 34 36 38 41 43 44 45 46 46 47 47 47 46 45 44 43 42 42 42 42 41 41 40 39 39 39 38 37 36 36 36 36 34 33 32 31 30 28 26 25 23 21 19 17 15 14 13 13 12 11 10 10 11 11 10 10 9 9 9 9 8 8 8 8 8 8 8 8 9 10
9 8 10 12 11 12 15 16 15 17 17 19 22 24 28 30 33 35 38 42 43 44 46 47 48 48 48 48 47 46 44 43 43 43 43 43 42 41 40 40 39 38 39 38 38 39 38 36 35 33 32 31 29 27 26 25 23 21 19 17 16 15 14 13 12 12 12 12 12 11 11 10 10 10 9 9 9 9 9 9 10 10 10 11 12
6 6 7 7 8 9 11 13 12 13 15 17 19 21 23 27 30 33 36 40 42 43 45 47 48 49 49 49 49 48 46 45 45 44 43 44 43 42 42 41 40 39 41 41 40 41 40 38 36 35 33 32 31 29 28 27 25 22 21 19 18 17 15 14 13 13 13 12 12 12 12 12 11 10 10 10 10 10 10 11 11 11 11 12 12
5 5 5 5 5 6 8 11 10 10 12 15 16 18 20 23 26 30 33 37 40 42 44 46 48 49 49 50 50 49 48 47 46 45 44 44 44 44 44 43 41 40 42 42 43 43 42 40 38 36 35 34 33 32 32 29 26 24 22 21 19 18 17 16 15 15 14 13 14 14 13 13 12 11 11 11 11 11 11 11 12 12 12 12 13
8 7 7 6 6 5 7 9 10 9 10 13 15 16 16 18 21 24 27 31 34 38 40 43 44 46 48 49 50 50 49 49 48 46 45 44 45 45 45 45 43 42 42 43 43 44 42 40 39 38 37 36 36 36 34 31 27 26 24 22 21 20 18 17 17 16 15 15 15 15 15 14 13 12 12 12 12 12 12 12 13 13 13 13 14
14 14 13 11 9 8 7 8 10 10 10 12 14 15 15 16 18 20 22 25 28 32 34 37 39 42 44 47 49 50 50 50 49 47 46 45 46 46 47 47 44 43 43 43 44 44 43 42 41 40 38 38 38 37 36 33 30 29 26 23 22 21 20 19 19 18 17 17 16 16 16 15 14 13 14 14 14 14 13 14 14 14 14 14 14
18 17 16 15 14 12 9 8 8 9 9 10 12 14 15 16 17 18 20 22 24 28 29 32 34 37 40 42 44 46 49 50 50 48 47 46 46 46 48 48 46 44 44 43 44 45 44 43 43 42 40 40 39 39 38 35 33 30 27 23 22 21 19 21 22 20 19 19 18 18 17 16 15 14 14 15 15 15 14 14 14 15 15 15 15
21 19 18 18 17 16 13 10 8 7 6 7 8 11 13 14 15 16 17 19 22 24 25 27 29 32 34 36 37 40 43 46 48 48 47 47 46 46 48 48 47 46 45 44 45 46 46 45 44 43 43 42 42 41 40 37 35 34 29 22 19 17 16 19 23 22 21 21 19 19 18 17 16 15 16 16 16 15 15 14 15 15 15 16 16
26 24 22 20 19 17 15 12 10 8 6 5 5 7 10 12 12 12 13 15 18 21 23 24 26 27 28 30 31 32 35 38 41 44 45 45 46 46 47 48 48 47 46 46 46 46 46 46 46 46 46 45 44 44 41 39 38 38 34 25 17 15 16 18 18 20 22 22 20 19 19 18 17 17 17 16 16 15 14 14 15 16 16 16 17
29 27 25 23 20 18 16 14 12 11 9 7 5 5 8 11 11 11 12 14 16 18 20 22 23 24 25 25 26 27 28 29 32 35 38 40 43 45 47 48 48 48 47 47 46 47 47 48 48 47 48 47 46 45 43 41 40 39 38 34 28 22 20 19 17 16 18 19 20 20 19 19 19 18 18 17 17 17 15 15 16 16 16 17 18
31 28 26 25 23 22 19 17 14 12 11 10 8 8 8 9 9 9 10 12 14 14 16 20 21 22 24 24 25 25 25 24 26 28 30 33 36 40 44 46 47 47 48 48 48 48 48 48 49 49 48 48 47 47 46 43 42 41 40 39 37 31 25 23 20 17 15 17 20 21 20 20 20 20 20 20 20 20 18 18 17 17 17 18 19
31 30 29 27 26 25 23 21 18 16 13 12 10 9 8 8 8 9 10 11 12 13 14 18 21 21 22 23 24 24 24 23 23 24 25 27 30 34 38 42 45 46 48 49 49 49 49 49 49 49 49 49 49 49 48 46 44 44 42 40 40 36 31 27 25 21 17 16 19 21 21 22 23 23 23 23 23 23 21 21 20 19 18 19 20
30 31 31 30 30 28 26 24 22 20 18 15 13 11 10 8 9 10 10 10 10 12 12 15 19 22 22 22 23 24 24 23 22 23 24 25 26 29 33 37 41 44 47 50 50 50 50 49 49 49 50 50 50 49 49 49 48 46 44 42 41 39 36 31 28 25 21 19 19 21 23 24 25 26 25 25 25 24 24 23 22 21 20 20 21
30 30 30 30 31 31 30 29 28 26 24 21 18 15 12 11 11 10 10 9 9 10 12 13 16 20 22 22 23 23 24 23 23 22 22 23 24 25 28 32 36 40 46 49 50 51 51 50 49 49 49 50 50 50 50 50 49 48 46 44 43 42 40 36 33 30 26 23 21 21 22 22 24 25 24 24 25 24 24 24 24 23 22 22 22
30 29 30 30 30 31 31 31 31 30 29 27 24 21 19 18 17 15 13 11 11 11 12 14 14 16 19 21 22 23 23 23 23 22 22 21 22 24 26 28 32 36 42 46 49 51 51 51 50 49 49 50 50 51 51 50 49 48 47 47 46 45 44 42 39 36 33 28 23 21 22 21 21 23 23 22 23 24 25 25 25 25 24 23 23
Wind_Direction
204 208 204 203 206 203 199 198 195 185 183 181 184 184 184 185 185 186 183 185 186 186 186 184 184 182 177 176 178 180 184 186 193 194 200 194 197 202 220 244 269 296 317 319 330 341 358 21 12 7 12 24 22 20 52 70 62 58 49 43 48 52 56 58 59 63 69 73 80 92 105 111 111 105 102 101 102 100 100 104 112 114 109 115 117
213 213 207 203 207 207 205 203 200 192 188 185 186 187 186 186 185 186 183 183 183 187 189 187 187 186 186 191 195 199 201 205 209 214 226 229 236 236 243 250 259 275 297 306 321 348 24 53 64 60 7 26 48 84 84 72 62 57 45 33 32 38 52 58 61 62 67 79 85 90 95 96 97 96 98 101 102 104 103 105 108 105 105 108 112
218 217 213 206 208 209 209 209 206 199 194 191 190 191 190 190 189 188 187 186 185 189 192 195 196 198 201 205 209 211 212 213 214 217 226 230 237 239 243 250 253 260 271 299 323 18 93 142 180 214 276 333 26 95 106 79 56 42 28 15 15 17 31 51 64 67 73 86 95 97 91 70 60 60 93 108 103 100 99 97 91 97 103 99 95
220 219 219 210 209 211 211 212 212 209 203 198 196 195 195 194 196 194 193 193 191 194 198 203 205 209 213 216 219 220 222 224 226 226 228 230 234 237 238 241 242 240 222 262 282 206 195 217 238 258 290 318 328 288 211 70 12 5 353 343 348 346 357 22 59 78 94 104 115 96 76 41 358 353 143 146 134 119 86 62 50 59 78 89 101
220 219 222 215 212 213 213 214 215 216 212 206 203 201 200 198 199 200 200 199 199 202 205 210 212 217 221 226 230 231 232 230 233 232 233 232 232 236 234 229 230 220 193 211 233 222 225 245 262 278 298 310 300 273 252 305 327 326 317 308 296 290 294 292 318 124 126 134 143 113 95 280 312 311 250 230 215 216 252 338 345 344 352 38 92
219 220 221 218 214 216 214 215 217 219 219 214 211 208 207 204 203 205 206 206 206 208 210 214 217 223 228 232 237 240 241 234 234 234 235 234 231 231 230 225 219 214 205 206 222 226 234 257 272 280 292 297 289 270 265 294 310 311 303 291 281 270 259 257 249 229 178 164 160 137 150 201 269 276 265 266 256 251 253 263 285 286 293 312 319
223 219 219 220 216 219 217 217 218 221 223 219 217 214 212 209 208 208 209 210 210 212 215 217 222 229 235 237 239 244 246 240 234 235 234 235 232 225 226 224 217 219 220 214 224 238 248 267 277 276 278 285 285 276 275 287 298 301 296 287 280 270 258 250 242 236 209 189 169 154 183 202 211 246 261 266 266 265 259 253 261 270 271 279 285
227 218 218 220 218 223 221 219 220 222 225 222 221 219 216 213 212 211 210 211 211 215 218 224 231 235 240 243 243 245 246 241 232 232 231 232 232 227 226 224 223 228 230 229 236 246 256 272 278 275 275 279 280 279 282 287 293 292 288 284 280 274 266 255 246 236 223 213 193 181 195 208 202 255 261 254 262 267 262 259 263 268 268 270 275
229 219 219 219 219 225 224 222 222 224 226 223 223 221 218 216 214 213 212 213 215 217 221 227 234 240 244 245 242 236 235 236 235 235 236 236 235 232 231 228 229 232 233 240 246 252 260 271 274 272 274 277 277 279 284 288 291 289 285 281 278 274 268 261 252 241 233 227 219 204 204 203 167 263 265 256 258 262 256 259 268 273 274 273 275
231 221 218 219 221 225 225 225 224 225 226 224 223 223 221 219 217 216 216 217 220 222 226 229 231 236 236 233 231 229 228 231 235 241 246 247 247 243 242 239 237 237 238 246 253 260 265 272 276 273 271 271 273 278 283 288 289 289 286 282 278 273 268 263 255 247 241 234 232 222 213 198 163 245 253 250 247 251 248 251 259 271 281 278 278
231 224 219 220 222 225 224 225 225 225 225 226 226 225 224 222 221 220 221 221 223 226 228 229 228 227 223 222 223 227 229 229 236 246 254 255 253 252 253 253 249 247 246 250 257 264 270 275 278 271 262 262 268 275 279 282 283 283 281 277 274 269 266 264 257 250 246 240 238 231 218 191 210 249 248 248 245 246 245 247 255 269 280 279 281
233 229 223 223 224 225 224 224 226 226 226 228 229 227 227 227 226 224 223 222 224 226 224 224 223 220 218 220 222 227 230 233 241 250 257 259 258 255 256 258 258 256 253 253 257 264 272 276 271 256 250 252 260 264 263 259 255 250 250 251 249 243 239 243 248 249 247 246 240 233 221 187 206 241 245 248 248 251 247 245 252 265 279 281 286
237 232 229 228 229 229 225 225 225 226 227 229 231 229 231 231 231 228 224 222 222 223 221 219 220 219 219 221 222 227 233 239 248 256 260 260 262 259 256 258 261 261 258 255 257 261 268 272 260 244 233 225 226 222 215 217 226 238 247 252 252 247 243 237 233 237 232 239 234 229 222 200 210 231 242 247 248 253 248 243 242 245 264 267 272
242 238 237 233 234 234 229 227 225 226 228 229 231 231 233 233 232 230 227 224 220 219 218 216 218 220 222 224 224 229 235 242 253 262 265 264 264 263 256 256 258 259 260 258 256 258 261 263 245 223 194 183 187 191 201 214 224 236 248 256 260 259 253 249 238 234 228 224 220 220 225 219 224 234 242 250 250 250 250 248 242 232 235 241 246
247 242 239 238 239 238 234 230 226 226 228 229 230 231 234 234 233 230 227 225 221 216 214 215 217 219 223 224 225 231 237 245 256 264 269 268 264 259 251 250 252 254 258 256 254 254 255 247 222 185 166 174 184 195 204 205 215 229 250 262 266 267 261 257 248 239 232 225 222 224 234 236 241 242 243 251 255 256 259 257 252 243 236 239 244
247 244 239 240 241 241 237 232 229 227 228 229 230 231 232 234 234 231 228 225 220 215 213 215 217 220 224 225 227 234 242 250 261 268 269 264 254 249 244 242 245 248 250 248 246 249 245 227 197 172 174 189 197 204 203 204 243 269 279 278 273 268 263 260 256 249 242 233 229 231 236 240 246 247 245 252 260 266 268 267 262 255 249 246 247
250 246 242 241 242 243 241 235 232 230 229 230 230 230 230 232 233 232 230 226 219 215 214 216 218 222 226 230 234 240 248 256 264 268 266 257 246 240 236 234 238 239 237 235 234 235 227 207 188 184 192 204 210 214 227 269 296 301 298 292 286 278 268 260 254 253 250 245 243 242 243 242 242 244 246 252 263 272 278 280 276 268 263 257 253
262 252 245 246 244 243 244 240 235 232 231 231 231 230 230 230 231 231 231 226 220 217 217 219 221 225 230 234 239 244 250 255 259 261 258 251 244 235 229 229 231 228 224 221 218 216 209 197 193 197 205 208 210 222 249 278 291 294 295 291 290 285 279 271 260 255 254 253 252 253 252 248 247 246 248 253 263 273 280 286 286 282 277 270 263
269 260 250 249 246 243 243 243 240 235 232 232 232 230 230 230 229 229 229 227 222 221 221 222 226 230 235 239 243 247 251 254 255 253 246 240 238 233 232 229 228 225 220 214 206 203 198 195 199 203 207 207 210 227 251 270 280 282 283 281 280 279 278 276 271 266 262 261 261 262 263 260 259 256 256 258 262 270 277 283 287 287 283 280 275
266 261 257 253 249 246 242 243 243 240 235 233 234 232 231 230 229 228 228 227 224 224 224 225 229 232 237 241 245 248 251 253 251 246 237 234 232 231 233 231 228 226 219 211 203 199 197 197 201 204 204 206 215 231 249 262 270 271 270 269 267 267 266 266 267 268 267 268 268 268 269 268 269 269 268 269 271 276 280 283 284 283 282 282 282
270 263 259 256 252 249 245 244 243 243 240 236 236 235 234 231 228 228 227 227 226 227 228 229 230 233 237 240 244 246 248 248 245 240 234 230 229 229 232 230 228 225 217 210 205 202 201 203 204 204 205 210 221 235 249 259 262 261 259 257 254 253 252 253 255 258 262 265 269 272 273 275 275 276 277 278 281 283 284 284 284 283 281 282 283
275 269 262 258 255 253 249 246 245 244 242 239 237 236 236 233 229 227 227 227 227 228 228 230 231 233 236 238 241 243 244 245 239 235 232 228 225 227 229 229 228 223 215 209 207 206 204 207 207 206 209 217 228 240 251 255 256 254 250 249 246 244 243 244 245 248 253 257 262 267 271 274 278 280 280 281 282 285 286 287 288 288 286 285 283
276 272 268 263 258 256 253 250 248 246 243 240 238 236 235 236 232 228 227 227 227 228 229 231 232 233 235 234 237 240 240 241 239 233 229 227 224 225 228 228 227 220 213 210 209 208 207 208 207 208 214 222 233 242 248 251 252 251 248 245 241 239 237 238 239 240 244 249 254 259 263 267 272 276 278 281 283 288 291 293 295 295 293 289 284
285 279 272 266 260 257 255 254 251 247 243 241 240 239 236 237 236 230 228 228 228 228 228 230 232 232 233 233 234 238 237 237 238 233 228 226 223 224 226 227 225 219 213 211 210 210 209 209 208 211 217 224 234 241 245 246 246 247 246 242 238 235 234 235 237 238 240 243 247 251 255 259 263 267 272 276 280 286 290 293 296 297 295 294 290
284 283 275 269 263 259 256 254 252 249 246 243 242 242 240 237 237 232 229 230 230 229 229 229 231 231 232 232 232 234 236 235 235 233 228 226 223 222 225 225 222 217 213 211 212 212 211 210 211 215 219 225 233 238 240 239 239 240 241 239 235 233 232 233 235 238 241 243 247 250 252 255 258 261 265 270 275 280 285 287 291 292 293 294 295
277 280 280 276 269 261 256 253 252 250 249 247 244 243 242 239 237 235 231 230 232 233 232 230 230 231 231 232 230 228 232 234 233 232 229 227 224 222 224 225 222 217 214 213 213 212 212 212 214 217 220 226 232 235 235 234 235 235 236 235 233 232 232 234 237 241 244 246 251 254 257 258 259 260 263 268 272 277 281 284 285 286 288 291 295
280 280 280 278 271 261 254 251 249 249 249 248 245 244 243 241 239 237 234 234 235 235 235 233 231 231 231 231 229 226 231 233 232 231 229 227 226 224 225 225 223 219 215 216 215 213 213 214 216 219 222 227 231 233 233 232 233 234 236 237 237 238 239 242 245 249 253 256 259 262 265 266 266 266 267 270 274 280 284 285 282 280 284 290 296
284 285 282 277 271 264 256 250 247 246 247 247 247 246 245 245 242 239 239 239 238 238 237 236 233 232 233 232 229 229 232 233 232 231 229 227 227 227 227 226 224 221 217 217 218 215 214 216 218 220 223 227 231 233 231 232 233 236 240 242 245 249 252 254 257 261 263 265 266 268 270 271 272 270 269 270 273 278 282 278 272 274 281 283 288
289 292 288 279 272 268 262 254 248 245 245 245 246 247 247 247 245 244 243 241 240 241 240 239 236 234 235 233 230 231 232 232 232 231 230 228 228 228 228 227 226 222 217 219 218 216 217 219 220 221 224 228 231 233 231 233 235 238 243 248 253 259 264 268 270 272 274 275 274 273 273 275 276 275 272 269 268 265 260 257 259 262 263 265 264
291 290 284 278 274 270 265 261 256 250 246 245 245 245 246 247 247 246 246 244 242 242 241 241 239 236 237 236 233 232 232 232 232 232 231 230 230 230 229 229 227 223 219 220 219 219 221 222 222 223 225 228 231 232 232 234 237 241 245 251 258 266 274 282 286 286 286 285 283 279 278 279 280 281 279 273 265 253 242 236 235 235 227 226 219
288 283 279 277 275 270 267 265 263 258 251 248 245 244 245 246 247 247 246 246 245 243 242 242 241 239 239 241 237 233 232 233 233 233 232 232 232 231 231 230 228 225 222 221 221 221 223 224 224 225 226 229 232 232 233 234 237 240 244 251 259 270 280 289 293 294 293 291 289 285 283 283 282 284 283 279 271 260 250 240 227 212 199 196 195
285 280 279 279 275 270 266 263 261 260 255 252 250 247 245 246 247 247 247 249 248 247 245 244 243 241 242 245 242 235 233 233 233 233 233 232 232 233 233 232 230 228 224 223 223 224 225 225 224 226 227 229 231 231 232 235 237 240 243 249 257 268 278 287 291 293 293 291 290 287 285 284 284 284 283 282 277 269 260 248 232 204 187 188 186
290 287 285 282 277 271 267 262 257 256 254 252 252 250 248 247 247 248 248 249 249 249 248 247 246 245 246 249 246 238 235 234 234 234 233 233 233 234 234 233 231 229 227 225 225 226 227 226 226 227 228 230 231 231 231 234 236 237 241 246 253 261 268 275 281 285 285 285 284 282 281 281 281 282 282 280 275 268 258 251 244 219 201 192 179
300 300 297 292 287 279 271 266 260 257 255 253 253 252 251 249 249 249 249 249 250 250 250 249 249 248 248 250 248 242 238 235 235 235 234 234 234 234 235 234 232 231 228 227 227 228 228 227 227 228 229 230 231 230 230 233 234 236 239 244 250 255 262 268 273 277 278 279 279 278 277 277 278 278 277 274 270 264 255 251 245 229 221 219 215
304 305 306 301 293 285 275 269 264 260 258 256 254 254 253 252 251 250 250 250 250 251 251 251 250 250 251 251 249 246 242 237 236 236 235 235 235 234 234 234 233 231 229 229 229 229 229 228 227 228 229 230 231 230 230 232 233 236 239 244 249 253 259 265 270 275 277 278 277 275 274 272 274 275 272 269 267 264 259 253 244 237 235 234 231
306 303 303 300 292 285 276 268 265 262 258 255 254 254 255 254 252 251 251 252 252 252 252 252 252 252 253 253 252 250 246 242 239 238 236 236 236 235 234 234 233 232 230 229 229 230 230 229 228 229 230 231 232 231 231 233 234 236 238 242 247 250 255 260 267 273 277 279 277 274 272 271 270 268 268 269 267 263 260 256 254 252 252 247 237
302 298 296 295 291 284 276 268 266 264 259 255 251 250 252 254 254 253 252 252 253 253 252 253 253 253 254 255 254 253 251 247 243 241 239 237 237 236 235 235 234 232 231 229 229 230 231 230 229 229 230 232 233 233 232 234 234 235 237 240 243 245 251 257 265 271 276 279 279 275 272 269 267 264 265 268 267 265 262 260 258 257 255 250 240
294 292 289 289 290 287 281 274 270 269 264 259 253 249 249 251 252 252 252 252 253 253 252 252 253 253 254 254 254 255 254 252 248 245 241 239 238 237 237 236 235 233 231 229 228 230 230 230 229 230 230 232 233 233 234 235 235 235 236 238 239 243 249 255 261 267 272 276 277 275 271 267 264 263 264 265 264 264 263 261 258 255 250 244 243
297 287 280 279 279 280 281 278 275 274 271 266 261 257 253 251 250 250 249 250 251 252 251 251 251 252 253 253 254 254 254 253 251 248 244 242 240 239 239 238 236 234 232 230 228 229 230 229 229 229 230 232 233 233 233 234 234 234 236 237 238 242 247 251 257 264 269 272 273 269 265 262 260 259 259 259 260 261 261 262 261 258 253 248 245
323 306 298 298 293 291 291 287 282 279 278 276 272 268 263 259 256 255 253 251 251 251 251 251 251 251 251 252 253 254 254 253 253 251 248 245 243 241 241 240 238 235 234 232 230 230 231 230 229 229 229 229 230 231 232 233 232 232 234 235 237 241 245 248 254 260 264 266 267 266 262 258 256 253 253 254 256 258 260 260 260 258 254 250 244
359 351 345 345 339 329 319 310 300 291 288 286 282 278 275 271 268 267 265 262 260 259 258 257 256 255 254 253 254 254 253 253 252 251 249 247 245 243 243 242 240 238 236 234 233 233 232 231 230 229 229 229 229 231 232 231 229 229 230 231 235 240 242 246 252 255 258 261 262 262 258 253 252 250 249 250 252 253 256 257 257 256 252 248 244
16 11 9 6 359 348 338 327 315 310 307 299 291 286 283 279 276 274 271 269 267 266 264 263 262 259 257 255 255 255 255 254 253 252 250 248 246 245 244 243 242 241 239 237 235 234 233 232 230 229 228 229 231 233 233 230 226 227 229 230 233 238 242 244 248 251 251 255 258 257 254 251 249 248 248 248 249 250 252 253 254 253 251 249 245
25 20 17 12 8 0 351 338 325 323 322 314 307 296 287 280 276 274 273 271 269 268 267 267 266 265 263 260 258 257 257 257 256 254 252 250 247 246 246 245 243 242 242 240 238 236 235 233 232 231 229 228 229 232 233 230 226 225 225 227 232 236 240 242 243 246 248 250 253 253 253 252 249 247 247 248 249 250 251 251 252 252 250 249 247
33 27 21 16 15 12 6 356 341 336 332 325 317 302 290 285 281 277 277 276 274 274 275 274 273 272 272 271 269 265 263 261 259 258 255 253 250 248 247 247 245 243 243 243 241 239 237 235 234 232 231 228 228 230 231 229 227 225 222 220 227 231 235 242 241 241 245 247 249 251 251 250 247 246 246 246 247 248 249 250 250 250 250 250 249
39 34 29 25 24 23 21 17 5 356 348 339 330 314 304 299 297 295 294 290 286 285 284 281 280 280 279 279 279 276 273 270 267 265 262 259 255 251 249 248 247 244 244 244 243 242 240 238 236 234 233 232 232 232 231 229 227 228 226 217 214 217 222 235 238 236 242 244 244 247 248 247 245 244 244 244 245 246 248 250 251 251 251 251 250
43 39 37 33 33 33 31 30 25 14 5 3 3 355 334 316 311 312 310 305 302 299 295 292 290 288 287 286 284 282 280 279 276 273 270 266 261 257 253 251 248 246 244 244 244 244 242 240 238 236 235 235 235 235 234 232 228 227 228 225 225 226 224 226 223 225 237 240 239 243 244 244 243 242 243 242 243 245 248 251 253 252 251 250 249
45 43 41 37 37 36 34 34 34 31 26 25 21 19 8 339 329 330 323 313 306 302 297 295 294 293 294 295 294 291 289 287 283 279 275 271 267 262 258 254 251 248 246 245 244 244 243 242 240 238 238 236 235 236 237 236 230 226 229 230 231 233 231 229 225 222 229 230 234 240 241 241 241 241 242 242 243 246 249 250 252 252 252 250 248
45 45 44 42 40 37 34 33 33 35 36 41 42 38 32 9 3 7 358 339 321 311 301 297 300 302 301 303 302 300 299 296 293 288 282 277 271 266 262 257 253 249 247 245 245 245 245 244 242 240 239 238 236 237 239 238 234 232 232 230 230 231 231 233 233 233 233 229 232 238 239 238 239 239 241 241 244 248 249 249 249 251 252 249 245
43 43 44 44 44 41 39 37 35 34 31 34 40 44 49 42 39 35 18 360 337 323 314 307 310 313 313 313 311 308 307 304 302 298 291 285 279 272 266 261 255 251 247 245 244 245 246 245 244 242 240 239 238 237 239 240 239 238 235 232 231 230 229 230 232 231 230 230 234 237 235 234 235 237 240 242 244 247 250 249 247 248 251 248 243
43 42 42 41 42 41 40 39 39 38 34 32 30 31 36 38 42 45 32 16 356 337 327 320 317 318 320 322 320 317 314 311 309 306 301 296 289 281 273 266 260 254 249 247 245 244 245 245 245 244 243 241 239 238 239 240 242 241 239 237 234 229 227 227 227 226 225 228 234 238 237 235 236 238 239 243 245 247 249 248 244 245 247 245 241
45 43 42 40 40 39 38 39 39 39 38 37 35 32 30 29 29 28 23 13 3 353 342 333 327 321 321 324 325 324 320 317 314 311 308 305 299 291 283 274 266 258 253 250 247 245 245 245 245 244 244 242 241 240 239 239 241 241 240 239 238 236 234 233 231 229 228 226 228 233 237 236 237 238 239 241 243 245 246 245 242 242 245 242 238